Location: Les Coudrans
(46.1056°N, 1.1158°W)
Time: 07:29:19
(UTC+00:00)

Resurs 01 Rocket - Pass Details

Date: 03 March 2021
Orbit: 635 x 643 km, 98.0° (Epoch: 18 April)

Event Time Altitude Azimuth Distance (km) Brightness Sun altitude
Exits shadow 19:12:40 13° 51° (NE) 1,810 3.5 -14.4°
Drops below altitude 10° 19:14:18 10° 29° (NNE) 2,033 4.0 -14.7°
Sets 19:17:30 0° 4° (N) 2,948 5.1 -15.3°
